TJS-10

Last updated on Wed Mar 04 2026 00:02:53 GMT+0000 (Coordinated Universal Time)

1 58204U 23169A 26062.50411911 -.00000351 00000+0 00000+0 0 9996 2 58204 2.2719 81.7816 0011154 233.4163 150.5100 0.99766199 8485
UTC large
Height (km)
Speed (km/s)
/
Latitude / Longitude
Inclination (degrees)
Orbital Period (minutes)
Azimuth
Elevation
Range (km)
Doppler Factor

Next 0 passes for location: London (51.5072 / 0.1276)

Sorry there are no passes over London.